Regional Weather Roundup
Issued by NWS Green Bay, WI

Home | Current Version | Previous Version | Text Only | Print | Product List | Glossary On
Versions: 1 2 3 4 5 6 7 8 9 10 11 12 13 14 15 16 17 18 19 20 21 22 23 24 25 26 27 28 29 30 31 32 33 34 35 36 37 38 39 40 41 42 43 44 45 46 47 48 49 50
079
ASUS43 KGRB 241000
RWRGRB

NORTH-CENTRAL AND NORTHEAST WISCONSIN REGIONAL WEATHER ROUNDUP
NATIONAL WEATHER SERVICE GREEN BAY WI
500 AM CDT WED AUG 24 2016

WIZ005-009-010>012-018-019-241100-
NORTH CENTRAL WISCONSIN

CITY           SKY/WX    TMP DP  RH WIND       PRES   REMARKS
IRONWOOD       RAIN      67  64  90 S7        29.86F
MANITOWISH WTR NOT AVBL
ARBOR VITAE    NOT AVBL
EAGLE RIVER    NOT AVBL
LAND O LAKES   NOT AVBL
RHINELANDER    LGT RAIN  66  66 100 S5        29.89F
PHILLIPS       CLOUDY    65  65 100 SE5       29.85F
ANTIGO         NOT AVBL
TOMAHAWK       NOT AVBL
MERRILL        NOT AVBL
$$

WIZ013-073-241100-
NORTHEAST WISCONSIN

CITY           SKY/WX    TMP DP  RH WIND       PRES   REMARKS
IRON MOUNTAIN  LGT RAIN  64  61  90 SE6       29.89F
MARINETTE      RAIN     N/A N/A N/A S12G18    29.91F
$$

WIZ017-030-035>037-045-241100-
CENTRAL WISCONSIN

CITY           SKY/WX    TMP DP  RH WIND       PRES   REMARKS
MEDFORD        NOT AVBL
WAUSAU         LGT RAIN  66  65  96 S8        29.88R
MOSINEE        NOT AVBL
MARSHFIELD     LGT RAIN  67  64  90 SW8       29.87R
WISC RAPIDS    CLOUDY    67  67 100 SE5       29.88R
STEVENS POINT  NOT AVBL
WAUPACA        NOT AVBL
SHAWANO        NOT AVBL
CLINTONVILLE   LGT RAIN  66  66 100 S10       29.89F
WAUTOMA        RAIN      69  68  96 SW7       29.88S
$$

WIZ038-039-048-051-241100-
FOX VALLEY

CITY           SKY/WX    TMP DP  RH WIND       PRES   REMARKS
NWS GREEN BAY  LGT RAIN  67  67 100 SE9       29.90F
APPLETON       NOT AVBL
OSHKOSH        CLOUDY    70  66  87 S13       29.89F
FOND DU LAC    CLOUDY    71  67  87 S15       29.90F
$$

WIZ022-050-052-241100-
EAST CENTRAL WISCONSIN

CITY           SKY/WX    TMP DP  RH WIND       PRES   REMARKS
EPHRAIM        NOT AVBL
WASHINGTON ISL NOT AVBL
STURGEON BAY   RAIN      67  66  97 SE12      29.93F FOG
MANITOWOC      NOT AVBL
SHEBOYGAN      CLOUDY    69  63  81 S9        29.93F
$$

LMZ563-521-522-541>543-241100-
LAKESHORE

STATION/POSITION TIME  TEMP    WIND        PRES    VSBY  WAVE
                       AIR SEA DIR/SP/G                  HT/PER
                 (UTC) (F)     (DEG/KT/KT) (MB)    (MI)  (FT/S)
SHEBOYGAN LKSHOR 0900   65     190/ 19/ 21 1013.5F
KEWAUNEE LKSHORE 0900   63     190/  5/  7 1014.0F
NORTHPORT PIER   0900   69     150/  3/ 20 1014.6F
N MID LAKE BUOY  0850   71 71  200/ 19/ 23 1014.5R         6/ 6
S GREEN BAY BUOY 0930   69 73              1012.5F
SISTER BAY LKSHO 0907   70     170/ 15/ 18   N/A
CHAMBERS ISLAND  0900   70     170/  6/ 13 1014.6F
MENOMINEE LKSHOR 0900   69     180/  8/ 11 1013.1F
$$




USA.gov is the U.S. government's official web portal to all federal, state and local government web resources and services.